[[{"header":{"parameterUnit":"m.s-1","parameterCategory":1,"la1":30.2992,"la2":30.254,"lo1":-89.0895,"lo2":-89.0443,"dy":0.0025,"dx":0.0025,"nx":19,"ny":19,"refTime":"2026-03-16T21:00:00:Z","depth":0,"parameterNumber":2,"parameterNumberName":"U-component_of_WINDS"},"data":[0,0,0,-1.5443,-1.5446,-1.5563,-1.5563,-1.5711,-1.5712,0,0,0,0,0,0,0,0,0,0,0,-1.5408,-1.5409,-1.5443,-1.5446,-1.5563,-1.5563,-1.5711,-1.5712,0,0,0,0,0,0,0,0,0,0,0,-1.5408,-1.5409,-1.541,-1.5447,-1.5563,-1.5563,-1.571,-1.5623,0,0,0,0,0,0,0,0,0,0,-1.551,-1.5477,-1.5409,-1.541,-1.5447,-1.5563,-1.5563,-1.5619,-1.5628,-1.5657,0,-1.5683,0,-1.57,-1.5722,-1.5722,0,0,0,-1.5447,-1.5469,-1.5501,-1.541,-1.5448,-1.5562,-1.551,-1.5624,-1.5635,-1.567,-1.5686,-1.5691,-1.5703,-1.5723,-1.5724,-1.589,-1.5891,0,0,-1.544,-1.5429,-1.5493,-1.5508,-1.549,-1.5507,-1.5514,-1.5631,-1.5647,-1.5686,-1.5695,-1.5705,-1.5724,-1.5725,-1.5889,-1.589,0,0,0,-1.5421,-1.5424,-1.5454,-1.5502,-1.5523,-1.551,-1.5518,-1.5641,-1.5652,-1.5696,-1.5707,-1.5725,-1.5727,-1.5889,-1.589,-1.5916,0,0,0,-1.5417,-1.5413,-1.5451,-1.5445,-1.5521,-1.5584,-1.5526,-1.5644,-1.5657,-1.5706,-1.5725,-1.5728,-1.5888,-1.5889,-1.5913,-1.593,0,0,0,-1.5401,-1.5412,-1.5428,-1.5444,-1.5494,-1.5582,-1.5599,-1.5647,-1.5664,-1.5723,-1.5728,-1.5887,-1.5889,-1.5911,-1.5926,-1.597,0,0,0,-1.538,-1.545,-1.5428,-1.5511,-1.5493,-1.5597,-1.5599,-1.5677,-1.573,-1.5726,-1.5888,-1.589,-1.591,-1.5924,-1.5968,-1.6005,-1.6019,0,0,-1.5462,-1.546,-1.5509,-1.5493,-1.5598,-1.558,-1.569,-1.5749,-1.5765,-1.5847,-1.5852,-1.5914,-1.5926,-1.5969,-1.6104,-1.6115,0,0,0,-1.5531,-1.5567,-1.5597,-1.5647,-1.5695,-1.5736,-1.578,-1.5802,-1.5873,-1.5805,-1.5942,-1.595,-1.5976,-1.5994,-1.6003,-1.6026,-1.5898,-1.5897,-1.5897,-1.5632,-1.5648,-1.5731,-1.5761,-1.581,-1.5854,-1.5895,-1.5932,-1.5935,-1.5967,-1.5991,-1.6071,-1.6092,-1.6099,-1.6122,-1.6012,-1.6012,-1.6012,-1.6012,-1.5754,-1.5807,-1.5807,-1.5888,-1.5904,-1.5972,-1.6017,-1.6016,-1.6081,-1.6054,-1.6077,-1.6046,-1.6111,-1.6132,-1.6015,-1.6014,-1.6014,-1.6014,-1.6014,-1.5822,-1.585,-1.5875,-1.5949,-1.6003,-1.6031,-1.6093,-1.6106,-1.6119,-1.6142,-1.6169,-1.6169,-1.617,-1.6154,-1.6155,-1.6155,-1.6155,-1.6155,-1.6155,-1.5882,-1.591,-1.596,-1.6016,-1.6049,-1.6095,-1.6139,-1.6172,-1.6213,-1.6217,-1.6217,-1.6216,-1.6114,-1.6088,-1.616,-1.6159,-1.6158,-1.6158,-1.6158,-1.6,-1.5975,-1.6053,-1.6087,-1.6152,-1.6205,-1.622,-1.6287,-1.6316,-1.6346,-1.634,-1.6262,-1.6261,-1.6253,-1.6232,-1.6336,-1.6336,-1.6336,-1.6336,-1.6057,-1.6057,-1.6139,-1.6192,-1.6244,-1.6266,-1.6353,-1.6388,-1.6421,-1.644,-1.6426,-1.6399,-1.639,-1.6394,-1.6383,-1.6363,-1.6499,-1.6499,-1.6499,-1.6129,-1.6135,-1.6207,-1.6238,-1.629,-1.6334,-1.6416,-1.6476,-1.6507,-1.6506,-1.6455,-1.6448,-1.6404,-1.6389,-1.6386,-1.637,-1.6333,0,0]},{"header":{"parameterUnit":"m.s-1","parameterCategory":1,"la1":30.2992,"la2":30.254,"lo1":-89.0895,"lo2":-89.0443,"dy":0.0025,"dx":0.0025,"nx":19,"ny":19,"refTime":"2026-03-16T21:00:00:Z","depth":0,"parameterNumber":3,"parameterNumberName":"V-component_of_WINDS"},"data":[0,0,0,-2.466,-2.4661,-2.4733,-2.4733,-2.4825,-2.4826,0,0,0,0,0,0,0,0,0,0,0,-2.4641,-2.4642,-2.466,-2.4662,-2.4733,-2.4733,-2.4825,-2.4826,0,0,0,0,0,0,0,0,0,0,0,-2.464,-2.4641,-2.4642,-2.4662,-2.4732,-2.4733,-2.4825,-2.4771,0,0,0,0,0,0,0,0,0,0,-2.4701,-2.4686,-2.4641,-2.4642,-2.4662,-2.4732,-2.4733,-2.4768,-2.4774,-2.4794,0,-2.4813,0,-2.4821,-2.4832,-2.4833,0,0,0,-2.466,-2.4681,-2.4698,-2.4642,-2.4663,-2.4732,-2.47,-2.4771,-2.4778,-2.4802,-2.4814,-2.4818,-2.4823,-2.4833,-2.4833,-2.4955,-2.4955,0,0,-2.4656,-2.4655,-2.4693,-2.4703,-2.4693,-2.4698,-2.4702,-2.4775,-2.4788,-2.4815,-2.482,-2.4824,-2.4834,-2.4834,-2.4954,-2.4955,0,0,0,-2.4646,-2.4652,-2.4667,-2.4699,-2.4712,-2.47,-2.4705,-2.4785,-2.479,-2.4821,-2.4825,-2.4834,-2.4835,-2.4954,-2.4955,-2.4983,0,0,0,-2.4644,-2.4646,-2.4666,-2.4666,-2.471,-2.475,-2.4713,-2.4785,-2.4794,-2.4825,-2.4834,-2.4836,-2.4953,-2.4954,-2.4981,-2.4997,0,0,0,-2.4636,-2.4645,-2.4656,-2.4665,-2.4696,-2.4748,-2.4758,-2.4787,-2.4796,-2.4833,-2.4837,-2.4952,-2.4954,-2.4979,-2.4994,-2.5027,0,0,0,-2.4626,-2.4682,-2.4656,-2.472,-2.4695,-2.4766,-2.4757,-2.481,-2.4845,-2.4835,-2.4953,-2.4954,-2.4978,-2.4992,-2.5025,-2.5054,-2.5066,0,0,-2.4695,-2.469,-2.4727,-2.4707,-2.4781,-2.4756,-2.4835,-2.4868,-2.4873,-2.4927,-2.493,-2.4982,-2.4993,-2.5027,-2.5139,-2.5148,0,0,0,-2.4748,-2.4775,-2.4795,-2.4828,-2.4855,-2.4878,-2.49,-2.4912,-2.4958,-2.4901,-2.5004,-2.5011,-2.503,-2.5044,-2.5052,-2.5068,-2.4961,-2.4961,-2.4961,-2.4842,-2.4845,-2.4906,-2.4918,-2.495,-2.4971,-2.4996,-2.5016,-2.5011,-2.5035,-2.505,-2.5118,-2.5134,-2.514,-2.5157,-2.5067,-2.5067,-2.5067,-2.5068,-2.4942,-2.4979,-2.4969,-2.5025,-2.5027,-2.5074,-2.5096,-2.509,-2.5133,-2.5107,-2.5124,-2.5094,-2.5151,-2.5165,-2.507,-2.5069,-2.5069,-2.5069,-2.5069,-2.5002,-2.502,-2.5034,-2.5081,-2.5116,-2.5126,-2.5167,-2.5168,-2.517,-2.5187,-2.5202,-2.5202,-2.52,-2.5194,-2.5195,-2.5195,-2.5195,-2.5195,-2.5195,-2.5059,-2.5074,-2.5108,-2.514,-2.516,-2.5187,-2.5208,-2.5228,-2.525,-2.5248,-2.5248,-2.5239,-2.5157,-2.5135,-2.5199,-2.5198,-2.5198,-2.5198,-2.5197,-2.5156,-2.5134,-2.5187,-2.5207,-2.5244,-2.5278,-2.5279,-2.5319,-2.5336,-2.5356,-2.5343,-2.5283,-2.5277,-2.5271,-2.5253,-2.5343,-2.5343,-2.5343,-2.5343,-2.5205,-2.5203,-2.5257,-2.5289,-2.532,-2.5326,-2.5385,-2.5401,-2.5415,-2.5425,-2.5412,-2.5389,-2.5382,-2.5381,-2.5372,-2.5355,-2.5469,-2.547,-2.547,-2.5264,-2.5265,-2.5315,-2.5327,-2.5356,-2.538,-2.5434,-2.5471,-2.5482,-2.5475,-2.5432,-2.5427,-2.5389,-2.5377,-2.5369,-2.5355,-2.5324,0,0]}]]